This demonstration page uses our WeatherBlox Daily Observations layout. Learn more.

Left ArrowRight Arrow

39.51506, -84.39828

Hourly Observations for March 14, 2020

Temp ( °F °C ) Dew Point ( °F °C ) Humidity (%) Winds ( mph kmh ) Pressure ( in mb ) Visibility ( mi km ) Precip ( " mm )
12:15 am 00:15 Clear 33 0.8 29 -1.6 84 84 Calm 30.45 1031 10 16.0934 0 0
12:35 am 00:35 Clear 33 0.5 29 -1.5 87 87 Calm 30.44 1031 10 16.0934 0 0
12:55 am 00:55 Clear 33 0.4 30 -1.3 89 89 Calm 30.44 1031 10 16.0934 0 0
1:15 am 01:15 Clear 32 0.2 29 -1.5 89 89 Calm 30.45 1031 10 16.0934 0 0
1:35 am 01:35 Clear 31 -0.4 29 -1.7 91 91 Calm 30.46 1031 10 16.0934 0 0
1:55 am 01:55 Clear 32 0 30 -1.2 92 92 Calm 30.46 1031 10 16.0934 0 0
2:15 am 02:15 Clear 32 -0.2 29 -1.8 89 89 Calm 30.47 1032 10 16.0934 0 0
2:35 am 02:35 Clear 32 -0.2 29 -1.7 90 90 Calm 30.47 1032 10 16.0934 0 0
2:55 am 02:55 Clear 32 -0.1 29 -1.5 90 90 Calm 30.49 1032 10 16.0934 0 0
3:15 am 03:15 Clear 32 -0.1 29 -1.5 90 90 Calm 30.49 1032 10 16.0934 0 0
3:35 am 03:35 Clear 31 -0.3 29 -1.6 91 91 N 3 6 30.47 1032 10 16.0934 0 0
3:55 am 03:55 Clear 32 0.1 30 -1 92 92 Calm 30.46 1031 10 16.0934 0 0
4:15 am 04:15 Clear 33 0.5 30 -1.3 88 88 Calm 30.45 1031 10 16.0934 0 0
4:35 am 04:35 Clear 33 0.7 30 -1.1 88 88 Calm 30.46 1032 10 16.0934 0 0
4:55 am 04:55 Clear 33 0.3 30 -1 91 91 Calm 30.46 1032 10 16.0934 0 0
5:15 am 05:15 Cloudy 33 0.4 31 -0.6 93 93 Calm 30.45 1031 10 16.0934 0 0
5:35 am 05:35 Cloudy 34 0.9 31 -0.4 91 91 NNE 5 7 30.45 1031 10 16.0934 0 0
5:55 am 05:55 Cloudy 35 1.7 33 0.7 93 93 Calm 30.45 1031 10 16.0934 0 0
6:15 am 06:15 Cloudy 35 1.6 32 0 89 89 N 3 6 30.45 1031 10 16.0934 0 0
6:35 am 06:35 Cloudy 36 2 33 0.4 89 89 NNE 5 7 30.45 1031 10 16.0934 0 0
6:55 am 06:55 Cloudy 36 2.3 33 0.5 88 88 Calm 30.46 1031 10 16.0934 0 0
7:15 am 07:15 Cloudy 36 2.3 33 0.5 88 88 Calm 30.46 1031 10 16.0934 0 0
7:35 am 07:35 Cloudy 37 2.6 33 0.6 87 87 Calm 30.46 1031 10 16.0934 0 0
7:55 am 07:55 Cloudy 37 2.6 33 0.5 86 86 Calm 30.46 1031 10 16.0934 0 0
8:15 am 08:15 Cloudy 37 2.9 34 0.9 87 87 NE 3 6 30.46 1031 10 16.0934 0 0
8:35 am 08:35 Cloudy 38 3.6 35 1.4 86 86 Calm 30.46 1031 10 16.0934 0 0
8:55 am 08:55 Cloudy 40 4.3 32 0.1 74 74 Calm 30.46 1032 10 16.0934 0 0
9:15 am 09:15 Cloudy 40 4.7 32 0.1 72 72 Calm 30.49 1033 10 16.0934 0 0
9:35 am 09:35 Cloudy 40 4.6 31 -0.4 70 70 N 5 7 30.5 1033 10 16.0934 0 0
9:55 am 09:55 Cloudy 40 4.7 32 0 72 72 NE 3 6 30.49 1033 10 16.0934 0 0
10:15 am 10:15 Cloudy 42 5.3 32 -0.2 68 68 ENE 8 13 30.47 1032 10 16.0934 0 0
10:35 am 10:35 Cloudy 42 5.6 25 -3.8 51 51 E 9 15 30.47 1032 10 16.0934 0 0
10:55 am 10:55 Cloudy 42 5.3 25 -3.8 52 52 ENE 10 17 30.48 1032 10 16.0934 0 0
11:15 am 11:15 Cloudy 42 5.7 26 -3.3 53 53 NE 7 11 30.48 1032 10 16.0934 0 0
11:35 am 11:35 Cloudy 43 6.1 25 -3.8 49 49 NE 9 15 30.48 1032 10 16.0934 0 0
11:55 am 11:55 Cloudy 43 6.1 25 -4 49 49 NE 7 11 30.49 1032 10 16.0934 0 0
12:15 pm 12:15 Cloudy 43 6.2 24 -4.4 47 47 NE 6 9 30.5 1033 10 16.0934 0 0
12:35 pm 12:35 Cloudy 43 6.1 24 -4.2 48 48 ENE 7 11 30.48 1032 10 16.0934 0 0
12:55 pm 12:55 Cloudy 41 5.2 26 -3.5 54 54 NNE 14 22 30.47 1032 10 16.0934 0 0
1:15 pm 13:15 Cloudy with Light Snow 34 1.3 32 -0.1 91 91 NNE 10 17 30.49 1033 5 8.0467 0 0
1:35 pm 13:35 Cloudy with Light Snow 34 1.2 32 0 92 92 NE 12 19 30.48 1032 4 6.43736 0 0
1:55 pm 13:55 Cloudy with Light Snow 34 1.1 32 0.2 94 94 NE 10 17 30.46 1032 3 4.82802 0 0
2:15 pm 14:15 Cloudy with Light Snow 34 1.1 32 0.1 93 93 NNE 12 19 30.48 1032 7 11.26538 0 0
2:35 pm 14:35 Cloudy with Light Snow 34 1 32 0.1 94 94 NE 10 17 30.48 1032 4 6.43736 0 0
2:55 pm 14:55 Cloudy with Light Snow 33 0.7 32 0 95 95 NE 12 19 30.46 1032 2 3.21868 0 0
3:15 pm 15:15 Cloudy with Light Snow 33 0.7 32 0.2 97 97 NE 12 19 30.44 1031 2 3.21868 0 0
3:35 pm 15:35 Cloudy with Light Snow 33 0.8 33 0.4 97 97 NNE 8 13 30.45 1031 3.5 5.63269 0 0
3:55 pm 15:55 Cloudy with Light Snow 34 0.9 33 0.4 97 97 NE 9 15 30.44 1031 3 4.82802 0 0
4:15 pm 16:15 Cloudy with Light Snow 33 0.8 33 0.4 97 97 NNE 7 11 30.44 1031 1.75 2.816345 0 0
4:35 pm 16:35 Cloudy with Light Snow 34 0.9 33 0.6 98 98 NE 10 17 30.42 1030 3.5 5.63269 0 0
4:55 pm 16:55 Cloudy with Light Rain 34 1.3 34 0.9 97 97 NE 10 17 30.42 1030 7 11.26538 0 0
5:15 pm 17:15 Cloudy 35 1.4 34 0.9 97 97 NE 13 20 30.41 1030 7 11.26538 0 0
5:35 pm 17:35 Cloudy 35 1.5 33 0.8 95 95 NNE 8 13 30.43 1031 10 16.0934 0 0
5:55 pm 17:55 Cloudy 35 1.6 34 0.9 95 95 NNE 9 15 30.43 1031 10 16.0934 0 0
6:15 pm 18:15 Cloudy with Light Rain 35 1.7 33 0.7 93 93 NE 9 15 30.44 1031 5 8.0467 0 0
6:35 pm 18:35 Cloudy with Light Rain 35 1.6 33 0.4 92 92 NE 12 19 30.42 1030 5 8.0467 0 0
6:55 pm 18:55 Cloudy with Light Rain 35 1.5 33 0.6 94 94 ENE 13 20 30.4 1030 7 11.26538 0 0
7:15 pm 19:15 Cloudy with Light Rain 35 1.4 33 0.5 94 94 ENE 12 19 30.37 1029 10 16.0934 0 0
7:35 pm 19:35 Mostly Cloudy 35 1.5 32 0.2 91 91 E 13 20 30.39 1029 10 16.0934 0 0
7:55 pm 19:55 Cloudy 35 1.6 33 0.3 91 91 NE 10 17 30.41 1030 10 16.0934 0 0
8:15 pm 20:15 Cloudy 35 1.6 32 0.2 91 91 NNE 9 15 30.43 1031 10 16.0934 0 0
8:35 pm 20:35 Cloudy 35 1.6 33 0.4 92 92 N 9 15 30.46 1032 10 16.0934 0 0
8:55 pm 20:55 Cloudy 35 1.6 33 0.5 93 93 N 10 17 30.47 1032 10 16.0934 0 0
9:15 pm 21:15 Cloudy with Drizzle 35 1.4 33 0.5 94 94 NNE 8 13 30.49 1033 4 6.43736 0 0
9:35 pm 21:35 Cloudy with Drizzle 34 1.3 33 0.6 95 95 NNE 10 17 30.48 1032 5 8.0467 0 0
9:55 pm 21:55 Cloudy with Mist and Fog 34 1.2 33 0.6 96 96 NNE 9 15 30.47 1032 7 11.26538 0 0
10:15 pm 22:15 Cloudy 34 1.2 33 0.6 96 96 NNE 8 13 30.46 1032 7 11.26538 0 0
10:35 pm 22:35 Cloudy 34 1.3 33 0.6 95 95 N 6 9 30.49 1033 7 11.26538 0 0
10:55 pm 22:55 Cloudy 35 1.4 33 0.6 94 94 NNE 9 15 30.47 1032 10 16.0934 0 0
11:15 pm 23:15 Cloudy 35 1.4 33 0.5 94 94 NNE 9 15 30.47 1032 10 16.0934 0 0
11:35 pm 23:35 Cloudy 35 1.5 33 0.5 93 93 NNE 10 17 30.46 1032 10 16.0934 0 0
11:55 pm 23:55 Cloudy 35 1.5 33 0.4 92 92 NNE 10 17 30.47 1032 10 16.0934 0 0

Powered by AerisWeather